Weather History for Amarillo, TX

Change the Weather History Date:

Saturday, August 31, 2013

  Actual Average Record
Temperature  
Mean Temperature 84 °F 75 °F  
Max Temperature 100 °F 88 °F 103 °F (2011)
Min Temperature 68 °F 62 °F 49 °F (1915)
Degree Days  
Heating Degree Days 0 0  
Month to date heating degree days 0 0  
Since 1 June heating degree days 0 8  
Since 1 July heating degree days 0 1  
Cooling Degree Days 19 10  
Month to date cooling degree days 449 367  
Year to date cooling degree days 1496 1192  
Since 1 June cooling degree days 1248 1067  
Growing Degree Days 34 (Base 50)    
Moisture  
Dew Point 50 °F    
Average Humidity 34    
Maximum Humidity 51    
Minimum Humidity 17    
Precipitation  
Precipitation 0.00 in 0.08 in 2.09 in (1986)
Month to date precipitation 1.42 2.91  
Year to date precipitation 12.37 15.27  
Snow  
Snow 0.00 in 0.00 in 0.00 in ()
Month to date snowfall 0.0 0.0  
Since 1 June snowfall 0.0 0.0  
Since 1 July snowfall 0.0 0.0  
Snow Depth 0.00 in    
Sea Level Pressure  
Sea Level Pressure 29.81 in    
Wind  
Wind Speed 12 mph (SSW)    
Max Wind Speed 22 mph    
Max Gust Speed 26 mph    
Visibility 10 miles    
Events      
T = Trace of Precipitation, MM = Missing Value Source: NWS Daily Summary

Daily Weather History Graph

Daily Weather History Graph

Search for Another Location

Airport:

Trip Planner

Search our weather history database for the weather conditions in past years. The results will help you decide how hot, cold, wet, or windy it might be!

Date:

Astronomy

Aug. 31, 2013 Rise Set
Actual Time 7:18 AM CDT 8:14 PM CDT
Civil Twilight 6:52 AM CDT 8:40 PM CDT
Nautical Twilight 6:22 AM CDT 9:11 PM CDT
Astronomical Twilight 5:50 AM CDT 9:42 PM CDT
Moon 2:55 AM CDT (8/31) 5:08 PM CDT (8/31)
Length of Visible Light 13h 47m
Length of Day
12h 55m
Waning Crescent, 21% of the Moon is Illuminated
Aug 31
Waning Crescent
Sep 5
New
Sep 12
First Quarter
Sep 19
Full
Sep 26
Last Quarter

Hourly Weather History & Observations

Time (CDT) Temp. Dew Point Humidity Pressure Visibility Wind Dir Wind Speed Gust Speed Precip Events Conditions
12:53 AM 78.1 °F 53.1 °F 42% 29.84 in 10.0 mi South 10.4 mph - N/A   Clear
1:53 AM 75.9 °F 53.1 °F 45% 29.84 in 10.0 mi SSW 9.2 mph - N/A   Clear
2:53 AM 75.0 °F 53.1 °F 46% 29.83 in 10.0 mi South 10.4 mph - N/A   Clear
3:53 AM 73.9 °F 52.0 °F 46% 29.83 in 10.0 mi SSW 10.4 mph - N/A   Clear
4:53 AM 73.0 °F 51.1 °F 46% 29.83 in 10.0 mi SSW 10.4 mph - N/A   Clear
5:53 AM 72.0 °F 50.0 °F 46% 29.83 in 10.0 mi SW 10.4 mph - N/A   Clear
6:53 AM 69.1 °F 50.0 °F 51% 29.84 in 10.0 mi SSW 9.2 mph - N/A   Clear
7:53 AM 72.0 °F 50.0 °F 46% 29.86 in 10.0 mi SW 10.4 mph - N/A   Clear
8:53 AM 79.0 °F 50.0 °F 36% 29.86 in 10.0 mi SW 15.0 mph - N/A   Clear
9:53 AM 84.9 °F 51.1 °F 31% 29.86 in 10.0 mi WSW 18.4 mph 26.5 mph N/A   Clear
10:53 AM 91.0 °F 51.1 °F 25% 29.85 in 10.0 mi WSW 16.1 mph - N/A   Clear
11:53 AM 93.9 °F 51.1 °F 23% 29.84 in 10.0 mi SW 9.2 mph 18.4 mph N/A   Clear
12:53 PM 97.0 °F 50.0 °F 20% 29.83 in 10.0 mi SSE 10.4 mph - N/A   Clear
1:53 PM 96.1 °F 48.9 °F 20% 29.81 in 10.0 mi Variable 6.9 mph - N/A   Clear
2:53 PM 99.0 °F 48.9 °F 18% 29.80 in 10.0 mi South 11.5 mph 24.2 mph N/A   Scattered Clouds
3:53 PM 98.1 °F 48.0 °F 18% 29.78 in 10.0 mi West 8.1 mph 21.9 mph N/A   Clear
4:53 PM 98.1 °F 46.9 °F 18% 29.76 in 10.0 mi South 11.5 mph - N/A   Partly Cloudy
5:53 PM 98.1 °F 46.9 °F 18% 29.75 in 10.0 mi SSE 13.8 mph - N/A   Clear
6:53 PM 96.1 °F 46.9 °F 19% 29.76 in 10.0 mi South 13.8 mph - N/A   Clear
7:53 PM 91.9 °F 48.9 °F 23% 29.77 in 10.0 mi South 13.8 mph - N/A   Clear
8:53 PM 88.0 °F 51.1 °F 28% 29.78 in 10.0 mi South 15.0 mph - N/A   Clear
9:53 PM 84.0 °F 51.1 °F 32% 29.79 in 10.0 mi South 12.7 mph - N/A   Clear
10:53 PM 82.9 °F 50.0 °F 32% 29.79 in 10.0 mi South 15.0 mph - N/A   Clear
11:53 PM 79.0 °F 50.0 °F 36% 29.80 in 10.0 mi SSW 9.2 mph - N/A   Clear